Weather reports worldwide

Advertisment
Pratica Di Mare, Italy (16245): temperature & dewpoint: 15.01.2018 04:00:00 - 21.01.2018 04:00:00 (CET)Pratica Di Mare, Italy (16245): wind speed: 15.01.2018 04:00:00 - 21.01.2018 04:00:00 (CET)Pratica Di Mare, Italy (16245): wind direction: 15.01.2018 04:00:00 - 21.01.2018 04:00:00 (CET)Pratica Di Mare, Italy (16245): reduced air pressure: 15.01.2018 04:00:00 - 21.01.2018 04:00:00 (CET)Pratica Di Mare, Italy (16245): visibility: 15.01.2018 04:00:00 - 21.01.2018 04:00:00 (CET)
Date & Time tt [°C] td [°C] ff [km/h] ff [kn] dd ppp [hPa] vv [km]
21.01.2018 04:00:00 - - - - - - -
21.01.2018 03:00:00 14,0 12,0 16 9 W - 10
21.01.2018 02:00:00 12,0 11,0 18 10 W - 10
21.01.2018 01:00:00 9,6 7,9 11 6 ESE 1009,9 10
21.01.2018 00:00:00 9,0 8,0 13 7 E - 10
20.01.2018 23:00:00 9,0 8,0 13 7 E - 10
20.01.2018 22:00:00 10,6 6,7 8 4 WSW 1011,5 12
20.01.2018 21:00:00 12,0 8,0 13 7 SW - 10
20.01.2018 20:00:00 12,0 8,0 15 8 WSW - 10
20.01.2018 19:00:00 12,0 8,7 16 9 WSW 1012,4 10
20.01.2018 18:00:00 11,0 8,0 9 5 W - 10
20.01.2018 17:00:00 13,0 10,0 13 7 W - 10
20.01.2018 16:00:00 14,6 9,2 11 6 W 1012,4 15
20.01.2018 15:00:00 15,0 8,0 21 11 W - 10
20.01.2018 14:00:00 15,0 8,0 15 8 WNW - 10
20.01.2018 13:00:00 15,0 7,8 11 6 NNW 1012,8 15
20.01.2018 12:00:00 15,0 10,0 11 6 NW - 10
20.01.2018 11:00:00 14,0 11,0 9 5 N - 10
20.01.2018 10:00:00 12,0 11,7 9 5 N 1014,2 10
20.01.2018 09:00:00 10,0 10,0 9 5 NNE - 10
20.01.2018 08:00:00 8,0 8,0 11 6 NNE - 10
20.01.2018 07:00:00 9,6 9,3 11 6 NNE 1011,9 12
20.01.2018 06:00:00 9,0 8,0 9 5 N - 10
20.01.2018 05:00:00 9,0 9,0 11 6 NNE - 10
20.01.2018 04:00:00 10,2 9,9 13 7 NE 1011,5 12
20.01.2018 03:00:00 11,0 11,0 11 6 NE - 10
20.01.2018 02:00:00 11,0 11,0 16 9 E - 10
20.01.2018 01:00:00 11,2 10,6 13 7 E 1011,7 12
20.01.2018 00:00:00 12,0 11,0 13 7 ESE - 10
19.01.2018 23:00:00 13,0 11,0 11 6 SSW - 10
19.01.2018 22:00:00 13,6 11,7 18 10 S 1012,4 10
19.01.2018 21:00:00 13,0 13,0 13 7 S - 9
19.01.2018 20:00:00 12,0 12,0 11 6 SSE - 9
19.01.2018 19:00:00 12,8 11,2 16 9 SSE 1012,7 10
19.01.2018 18:00:00 13,0 12,0 16 9 SSE - 10
19.01.2018 17:00:00 13,0 12,0 11 6 SSE - 10
19.01.2018 16:00:00 13,2 11,6 18 10 S 1013,4 9
19.01.2018 15:00:00 14,0 11,0 13 7 SSW - 9
19.01.2018 14:00:00 14,0 12,0 21 11 S - 10
19.01.2018 13:00:00 13,8 12,2 22 12 S 1014,7 9
19.01.2018 12:00:00 14,0 12,0 28 15 SSW - 8
19.01.2018 11:00:00 14,0 11,0 22 12 SW - 10
19.01.2018 10:00:00 13,6 11,8 24 13 SSW 1014,7 10
19.01.2018 09:00:00 13,0 11,0 24 13 SW - 10
19.01.2018 08:00:00 13,0 11,0 21 11 SW - 10
19.01.2018 07:00:00 13,0 11,4 16 9 WSW 1014,9 12
19.01.2018 06:00:00 13,0 11,0 22 12 SW - 10
19.01.2018 05:00:00 13,0 10,0 21 11 WSW - 10
19.01.2018 04:00:00 13,0 10,0 18 10 WSW 1016,0 12
19.01.2018 03:00:00 13,0 11,0 24 13 WSW - 10
19.01.2018 02:00:00 13,0 11,0 26 14 WSW - 10
19.01.2018 01:00:00 13,0 11,4 24 13 WSW 1016,7 12
19.01.2018 00:00:00 13,0 12,0 26 14 WSW - 10
18.01.2018 23:00:00 13,0 11,0 18 10 WSW - 10
18.01.2018 22:00:00 13,6 11,3 18 10 WSW 1017,8 12
18.01.2018 21:00:00 14,0 11,0 21 11 WSW - 10
18.01.2018 20:00:00 13,0 10,0 22 12 WSW - 10
18.01.2018 19:00:00 13,6 10,2 18 10 SW 1018,4 12
18.01.2018 18:00:00 14,0 10,0 22 12 SW - 10
18.01.2018 17:00:00 14,0 9,0 24 13 SW - 10
18.01.2018 16:00:00 13,6 7,6 29 16 SW 1019,0 20
18.01.2018 15:00:00 13,0 7,0 18 10 SW - 10
18.01.2018 14:00:00 14,0 5,0 18 10 SW - 10
18.01.2018 13:00:00 14,2 -4,1 16 9 SSE 1020,2 20
18.01.2018 12:00:00 13,0 -10,0 15 8 SSE - 10
18.01.2018 11:00:00 12,0 -7,0 9 5 N - 10
18.01.2018 10:00:00 9,4 -4,2 5 3 SSE 1019,9 15
18.01.2018 09:00:00 6,0 -6,0 4 2 - - 10
18.01.2018 08:00:00 3,0 -5,0 8 4 NE - 10
18.01.2018 07:00:00 3,4 -7,7 2 1 SE 1018,5 15
18.01.2018 06:00:00 5,0 -12,0 13 7 NNE - 10
18.01.2018 05:00:00 5,0 -11,0 11 6 NNE - 10
18.01.2018 04:00:00 4,6 -9,2 11 6 N 1017,7 15
18.01.2018 03:00:00 5,0 -9,0 9 5 N - 10
18.01.2018 02:00:00 6,0 -9,0 11 6 NNE - 10
18.01.2018 01:00:00 6,8 -9,6 9 5 NNE 1015,9 15
18.01.2018 00:00:00 8,0 -10,0 13 7 NNW - 10
17.01.2018 23:00:00 7,0 -3,0 13 7 NW - 10
17.01.2018 22:00:00 8,4 -1,4 8 4 NNW 1013,3 15
17.01.2018 21:00:00 9,0 -1,0 11 6 NNW - 10
17.01.2018 20:00:00 10,0 0,0 8 4 N - 10
17.01.2018 19:00:00 12,0 0,4 22 12 NNE 1009,7 15
17.01.2018 18:00:00 13,0 0,0 42 23 NW - 10
17.01.2018 17:00:00 14,0 1,0 35 19 NW - 10
17.01.2018 16:00:00 14,8 3,0 37 20 WNW 1005,1 20
17.01.2018 15:00:00 15,0 2,0 48 26 WNW - 10
17.01.2018 14:00:00 15,0 3,0 42 23 NW - 10
17.01.2018 13:00:00 16,8 1,3 46 25 NW 1003,5 25
17.01.2018 12:00:00 17,0 5,0 44 24 WNW - 10
17.01.2018 11:00:00 16,0 12,0 44 24 W - 10
17.01.2018 10:00:00 15,2 12,2 44 24 W 1004,6 12
17.01.2018 09:00:00 15,0 13,0 42 23 W - 10
17.01.2018 08:00:00 15,0 12,0 37 20 W - 10
17.01.2018 07:00:00 14,4 13,4 24 13 W 1005,4 10
17.01.2018 06:00:00 14,0 12,0 29 16 W - 10
17.01.2018 05:00:00 14,0 12,0 35 19 W - 10
17.01.2018 04:00:00 14,4 12,4 37 20 W 1007,2 10
17.01.2018 03:00:00 14,0 13,0 34 18 W - 10
17.01.2018 02:00:00 14,0 13,0 28 15 W - 10
17.01.2018 01:00:00 14,2 13,1 26 14 W 1010,2 10
17.01.2018 00:00:00 14,0 13,0 29 16 W - 10
16.01.2018 23:00:00 15,0 13,0 4 2 N - 10
16.01.2018 22:00:00 14,4 12,4 16 9 W 1011,8 10
16.01.2018 21:00:00 15,0 13,0 21 11 W - 10
16.01.2018 20:00:00 15,0 13,0 18 10 W - 10
16.01.2018 19:00:00 14,6 12,8 22 12 W 1012,6 10
16.01.2018 18:00:00 15,0 12,0 26 14 WSW - 10
16.01.2018 17:00:00 15,0 12,0 28 15 W - 10
16.01.2018 16:00:00 14,8 12,0 34 18 WSW 1014,2 10
16.01.2018 15:00:00 15,0 12,0 37 20 W - 10
16.01.2018 14:00:00 14,0 10,0 35 19 WSW - 10
16.01.2018 13:00:00 14,2 10,4 34 18 WSW 1016,4 10
16.01.2018 12:00:00 14,0 10,0 31 17 WSW - 10
16.01.2018 11:00:00 14,0 9,0 31 17 WSW - 10
16.01.2018 10:00:00 13,8 10,0 35 19 WSW 1017,4 8
16.01.2018 09:00:00 13,0 10,0 31 17 WSW - 8
16.01.2018 08:00:00 13,0 9,0 34 18 WSW - 8
16.01.2018 07:00:00 13,6 8,4 34 18 W 1017,9 10
16.01.2018 06:00:00 13,0 8,0 9 5 WSW - 10
16.01.2018 05:00:00 13,0 8,0 28 15 WSW - 10
16.01.2018 04:00:00 11,6 8,6 26 14 WSW 1020,2 10
16.01.2018 03:00:00 11,0 11,0 21 11 SW - 8
16.01.2018 02:00:00 10,0 9,0 28 15 N - 10
16.01.2018 01:00:00 10,0 9,4 11 6 E 1021,6 10
16.01.2018 00:00:00 10,0 9,0 8 4 SE - 8
15.01.2018 23:00:00 10,0 9,0 8 4 SE - 10
15.01.2018 22:00:00 10,0 9,4 13 7 E 1021,5 10
15.01.2018 21:00:00 10,0 10,0 9 5 ESE - 8
15.01.2018 20:00:00 10,0 10,0 5 3 ENE - 8
15.01.2018 19:00:00 10,8 9,1 8 4 ENE 1021,4 7
15.01.2018 18:00:00 11,0 10,0 11 6 E - 7
15.01.2018 17:00:00 13,0 12,0 9 5 WSW - 4,0
15.01.2018 16:00:00 13,4 12,5 13 7 S 1020,8 10
15.01.2018 15:00:00 14,0 11,0 13 7 S - 10
15.01.2018 14:00:00 14,0 10,0 13 7 S - 10
15.01.2018 13:00:00 13,6 6,5 9 5 S 1022,2 15
15.01.2018 12:00:00 14,0 6,0 8 4 ESE - 10
15.01.2018 11:00:00 13,0 6,0 13 7 SE - 10
15.01.2018 10:00:00 12,0 6,1 8 4 ENE 1022,9 15
15.01.2018 09:00:00 9,0 7,0 9 5 NE - 10
15.01.2018 08:00:00 8,0 7,0 13 7 NE - 10
15.01.2018 07:00:00 7,6 7,2 15 8 NNE 1021,9 12
15.01.2018 06:00:00 8,0 7,0 9 5 NNE - 10
15.01.2018 05:00:00 9,0 7,0 5 3 NE - 10
15.01.2018 04:00:00 8,4 7,2 11 6 NE 1022,1 12

tt = temperature
td = dewpoint
ff = wind speed
dd = wind direction
ppp = reduced air pressure
vv = visibility

Next stations